Radiation Dose at Monitoring Post of Fukushima Daini Nuclear Power Station
Date,Time,MP-1(microSv/h),MP-2(microSv/h),MP-3(microSv/h),MP-4(microSv/h),MP-5(microSv/h),MP-6(microSv/h),MP-7(microSv/h),Wind Direction,Wind Velocity(m/s),Rain
2024/07/14,00:00,0.145,0.129,0.207,0.195,0.204,0.115,0.076,-,CALM,No
2024/07/14,00:10,0.142,0.128,0.208,0.193,0.205,0.116,0.075,south,1.4,Yes
2024/07/14,00:20,0.144,0.129,0.208,0.195,0.204,0.116,0.075,south,0.8,No
2024/07/14,00:30,0.144,0.129,0.207,0.192,0.205,0.116,0.075,south-southwest,0.9,No
2024/07/14,00:40,0.144,0.129,0.206,0.194,0.204,0.115,0.075,southwest,0.9,No
2024/07/14,00:50,0.145,0.129,0.207,0.193,0.204,0.115,0.075,southwest,1.0,No
2024/07/14,01:00,0.142,0.128,0.208,0.193,0.206,0.115,0.075,west,1.1,No
2024/07/14,01:10,0.144,0.129,0.206,0.194,0.204,0.114,0.074,west-southwest,0.8,No
2024/07/14,01:20,0.143,0.129,0.208,0.193,0.206,0.116,0.074,south-southwest,1.1,No
2024/07/14,01:30,0.144,0.130,0.206,0.194,0.205,0.115,0.074,south,1.4,No
2024/07/14,01:40,0.145,0.128,0.207,0.193,0.203,0.115,0.076,south-southeast,1.2,No
2024/07/14,01:50,0.143,0.129,0.206,0.195,0.206,0.115,0.075,south-southeast,1.1,No
2024/07/14,02:00,0.144,0.128,0.208,0.194,0.204,0.114,0.075,south,1.0,No
2024/07/14,02:10,0.143,0.129,0.207,0.194,0.206,0.116,0.075,south-southeast,1.0,No
2024/07/14,02:20,0.144,0.129,0.206,0.194,0.204,0.115,0.075,south,1.2,No
2024/07/14,02:30,0.143,0.129,0.208,0.193,0.204,0.115,0.075,south,0.9,No
2024/07/14,02:40,0.144,0.129,0.207,0.194,0.206,0.116,0.076,south-southeast,0.6,No
2024/07/14,02:50,0.144,0.128,0.207,0.192,0.204,0.115,0.075,-,CALM,No
2024/07/14,03:00,0.144,0.129,0.208,0.195,0.205,0.117,0.075,west,1.0,No
2024/07/14,03:10,0.144,0.128,0.208,0.193,0.205,0.115,0.075,west-northwest,0.6,No
2024/07/14,03:20,0.144,0.129,0.206,0.194,0.205,0.116,0.075,west-northwest,0.6,No
2024/07/14,03:30,0.145,0.129,0.207,0.195,0.207,0.115,0.076,-,CALM,No
2024/07/14,03:40,0.144,0.130,0.207,0.193,0.203,0.115,0.074,northwest,0.7,No
2024/07/14,03:50,0.144,0.128,0.208,0.194,0.207,0.115,0.075,west-northwest,0.8,No
2024/07/14,04:00,0.144,0.129,0.206,0.193,0.204,0.115,0.075,-,CALM,No
2024/07/14,04:10,0.145,0.128,0.208,0.195,0.205,0.115,0.076,-,CALM,No
2024/07/14,04:20,0.144,0.129,0.206,0.193,0.204,0.115,0.075,north-northwest,1.1,No
2024/07/14,04:30,0.143,0.128,0.208,0.194,0.206,0.115,0.076,north,1.1,No
2024/07/14,04:40,0.145,0.128,0.206,0.194,0.207,0.117,0.075,north-northwest,1.1,No
2024/07/14,04:50,0.144,0.129,0.208,0.194,0.205,0.115,0.075,north-northwest,1.6,No
2024/07/14,05:00,0.144,0.129,0.207,0.192,0.207,0.116,0.076,north-northwest,0.9,No
2024/07/14,05:10,0.144,0.129,0.209,0.194,0.207,0.115,0.075,north-northwest,2.3,No
2024/07/14,05:20,0.145,0.128,0.207,0.193,0.207,0.116,0.077,north-northwest,2.9,No
2024/07/14,05:30,0.145,0.129,0.208,0.195,0.206,0.116,0.076,north,2.9,No
2024/07/14,05:40,0.144,0.128,0.207,0.194,0.205,0.116,0.076,north-northwest,3.5,No
2024/07/14,05:50,0.145,0.128,0.208,0.194,0.207,0.115,0.075,north-northwest,3.6,No
2024/07/14,06:00,0.143,0.127,0.208,0.195,0.206,0.115,0.075,north-northwest,3.9,No
2024/07/14,06:10,0.143,0.128,0.206,0.193,0.205,0.116,0.076,north-northwest,3.1,No
2024/07/14,06:20,0.144,0.129,0.207,0.194,0.206,0.115,0.076,north,2.5,No
2024/07/14,06:30,0.143,0.127,0.205,0.194,0.205,0.116,0.076,north,3.2,No
2024/07/14,06:40,0.145,0.129,0.207,0.193,0.204,0.116,0.076,north-northwest,3.0,No
2024/07/14,06:50,0.144,0.129,0.209,0.195,0.206,0.115,0.075,north-northwest,2.2,No
2024/07/14,07:00,0.143,0.128,0.206,0.193,0.206,0.115,0.076,north-northwest,2.4,No
2024/07/14,07:10,0.144,0.129,0.206,0.192,0.203,0.116,0.076,north,1.4,No
2024/07/14,07:20,0.145,0.129,0.207,0.195,0.206,0.115,0.075,north-northeast,1.2,No
2024/07/14,07:30,0.144,0.128,0.206,0.193,0.205,0.115,0.075,north,1.7,No
2024/07/14,07:40,0.142,0.128,0.205,0.192,0.204,0.116,0.075,north,1.7,No
2024/07/14,07:50,0.143,0.129,0.207,0.192,0.202,0.115,0.075,north-northeast,1.8,No
2024/07/14,08:00,0.144,0.128,0.209,0.194,0.203,0.114,0.076,north,1.7,No
2024/07/14,08:10,0.143,0.128,0.207,0.194,0.205,0.115,0.075,north,1.4,No
2024/07/14,08:20,0.143,0.127,0.206,0.192,0.207,0.115,0.075,north-northwest,1.6,No
2024/07/14,08:30,0.141,0.127,0.205,0.192,0.205,0.115,0.075,north-northwest,1.3,No
2024/07/14,08:40,0.143,0.128,0.205,0.193,0.204,0.114,0.075,north,1.7,No
2024/07/14,08:50,0.142,0.129,0.206,0.191,0.203,0.115,0.075,north-northwest,1.1,No
2024/07/14,09:00,0.143,0.129,0.205,0.192,0.203,0.115,0.075,north,0.9,No
2024/07/14,09:10,0.144,0.129,0.206,0.192,0.204,0.115,0.074,-,CALM,No
2024/07/14,09:20,0.144,0.128,0.205,0.191,0.204,0.115,0.074,-,CALM,No
2024/07/14,09:30,0.143,0.126,0.204,0.191,0.203,0.114,0.074,east-southeast,0.6,No
2024/07/14,09:40,0.143,0.128,0.206,0.191,0.202,0.114,0.074,east-southeast,0.8,No
2024/07/14,09:50,0.142,0.129,0.205,0.193,0.204,0.116,0.074,east-southeast,1.2,No
2024/07/14,10:00,0.142,0.128,0.206,0.192,0.203,0.115,0.075,east,0.9,No
2024/07/14,10:10,0.142,0.127,0.205,0.192,0.203,0.115,0.074,east-southeast,1.3,No
2024/07/14,10:20,0.142,0.128,0.205,0.192,0.203,0.114,0.074,south-southeast,1.0,No
2024/07/14,10:30,0.143,0.127,0.206,0.192,0.204,0.114,0.074,east,0.6,No
2024/07/14,10:40,0.142,0.128,0.206,0.194,0.205,0.115,0.074,east-southeast,1.3,No
2024/07/14,10:50,0.141,0.127,0.206,0.193,0.204,0.115,0.074,east-southeast,1.6,No
2024/07/14,11:00,0.141,0.127,0.208,0.193,0.204,0.114,0.075,east,1.6,No
2024/07/14,11:10,0.143,0.127,0.206,0.193,0.204,0.114,0.074,east-southeast,1.2,No
2024/07/14,11:20,0.143,0.127,0.206,0.193,0.204,0.115,0.074,east,1.5,No
2024/07/14,11:30,0.142,0.127,0.206,0.193,0.204,0.115,0.074,east,1.7,No
2024/07/14,11:40,0.142,0.127,0.206,0.192,0.205,0.114,0.074,east,2.0,No
2024/07/14,11:50,0.142,0.127,0.205,0.192,0.204,0.115,0.074,east,1.6,No
2024/07/14,12:00,0.142,0.127,0.206,0.192,0.204,0.114,0.074,east,1.4,No
2024/07/14,12:10,0.142,0.126,0.205,0.192,0.204,0.114,0.074,east-southeast,1.4,No
2024/07/14,12:20,0.141,0.127,0.206,0.192,0.204,0.114,0.073,east-southeast,1.6,No
2024/07/14,12:30,0.142,0.127,0.205,0.193,0.203,0.115,0.074,east-northeast,1.3,No
2024/07/14,12:40,0.141,0.127,0.205,0.193,0.205,0.114,0.073,northeast,1.8,No
2024/07/14,12:50,0.143,0.126,0.205,0.192,0.204,0.115,0.073,east-northeast,1.3,No
2024/07/14,13:00,0.142,0.127,0.206,0.192,0.204,0.115,0.073,east-northeast,1.5,No
2024/07/14,13:10,0.142,0.126,0.206,0.193,0.204,0.114,0.074,east,1.3,No
2024/07/14,13:20,0.142,0.128,0.205,0.192,0.203,0.114,0.073,east,1.3,No
2024/07/14,13:30,0.142,0.127,0.205,0.192,0.202,0.115,0.073,north-northeast,0.7,Yes
2024/07/14,13:40,0.142,0.129,0.206,0.193,0.203,0.115,0.073,northeast,0.9,No
2024/07/14,13:50,0.145,0.128,0.205,0.192,0.202,0.115,0.073,east-northeast,1.2,No
2024/07/14,14:00,0.145,0.128,0.204,0.191,0.202,0.114,0.074,northeast,1.0,Yes
2024/07/14,14:10,0.143,0.128,0.206,0.192,0.201,0.114,0.074,east-northeast,1.5,Yes
2024/07/14,14:20,0.142,0.127,0.207,0.195,0.202,0.115,0.073,north,1.0,Yes
2024/07/14,14:30,0.143,0.128,0.206,0.195,0.205,0.115,0.073,northeast,1.8,No
2024/07/14,14:40,0.144,0.128,0.205,0.193,0.206,0.114,0.074,north-northeast,1.3,No
2024/07/14,14:50,0.143,0.127,0.205,0.192,0.203,0.113,0.074,north-northeast,1.1,Yes
2024/07/14,15:00,0.142,0.128,0.206,0.193,0.202,0.114,0.073,north-northeast,1.6,Yes
2024/07/14,15:10,0.143,0.128,0.207,0.195,0.203,0.115,0.073,north,1.3,No
2024/07/14,15:20,0.144,0.128,0.206,0.194,0.205,0.115,0.073,north-northeast,1.2,No
2024/07/14,15:30,0.143,0.127,0.205,0.193,0.204,0.113,0.073,east-northeast,1.1,Yes
2024/07/14,15:40,0.143,0.128,0.207,0.193,0.203,0.115,0.073,north-northwest,0.6,Yes
2024/07/14,15:50,0.144,0.128,0.207,0.195,0.205,0.115,0.074,north-northeast,0.7,Yes
2024/07/14,16:00,0.144,0.127,0.206,0.194,0.206,0.115,0.075,north-northeast,1.3,Yes
2024/07/14,16:10,0.143,0.128,0.209,0.192,0.204,0.115,0.074,north-northeast,1.7,Yes
2024/07/14,16:20,0.144,0.129,0.209,0.197,0.204,0.117,0.075,north-northeast,1.5,Yes
2024/07/14,16:30,0.145,0.130,0.208,0.196,0.207,0.117,0.076,north-northeast,1.4,Yes
2024/07/14,16:40,0.146,0.132,0.211,0.195,0.207,0.118,0.079,north-northeast,4.2,Yes
2024/07/14,16:50,0.149,0.134,0.211,0.199,0.207,0.122,0.082,east-northeast,8.2,Yes
2024/07/14,17:00,0.150,0.134,0.209,0.199,0.210,0.122,0.084,north-northwest,2.7,Yes
2024/07/14,17:10,0.148,0.134,0.211,0.196,0.209,0.122,0.084,north-northeast,1.8,Yes
2024/07/14,17:20,0.149,0.135,0.211,0.199,0.208,0.121,0.082,north,3.6,Yes
2024/07/14,17:30,0.150,0.134,0.211,0.199,0.212,0.123,0.084,north,4.4,Yes
2024/07/14,17:40,0.150,0.136,0.213,0.199,0.210,0.123,0.085,north,1.4,Yes
2024/07/14,17:50,0.153,0.137,0.214,0.201,0.210,0.125,0.086,east-northeast,3.1,Yes
2024/07/14,18:00,0.153,0.137,0.213,0.202,0.212,0.125,0.088,-,CALM,Yes
2024/07/14,18:10,0.152,0.139,0.216,0.201,0.212,0.125,0.087,northeast,6.1,Yes
2024/07/14,18:20,0.154,0.139,0.213,0.201,0.211,0.126,0.089,northeast,4.5,Yes
2024/07/14,18:30,0.151,0.139,0.210,0.199,0.213,0.125,0.089,east-northeast,5.6,Yes
2024/07/14,18:40,0.152,0.140,0.213,0.200,0.211,0.126,0.089,north-northeast,4.0,Yes
2024/07/14,18:50,0.153,0.140,0.212,0.201,0.214,0.126,0.090,north-northeast,7.1,Yes
2024/07/14,19:00,0.150,0.141,0.213,0.201,0.212,0.126,0.090,north,3.3,Yes
2024/07/14,19:10,0.152,0.139,0.213,0.200,0.211,0.124,0.089,northeast,2.5,Yes
2024/07/14,19:20,0.150,0.140,0.212,0.201,0.213,0.124,0.088,north-northeast,1.8,Yes
2024/07/14,19:30,0.149,0.137,0.211,0.197,0.210,0.123,0.086,north-northeast,1.6,Yes
2024/07/14,19:40,0.149,0.137,0.210,0.199,0.210,0.122,0.085,northeast,2.6,Yes
2024/07/14,19:50,0.147,0.136,0.210,0.197,0.210,0.121,0.085,north-northeast,2.4,Yes
2024/07/14,20:00,0.148,0.135,0.209,0.199,0.209,0.119,0.084,north,1.7,Yes
2024/07/14,20:10,0.146,0.135,0.210,0.197,0.210,0.120,0.084,north-northwest,3.4,Yes
2024/07/14,20:20,0.145,0.133,0.208,0.195,0.207,0.119,0.083,north-northwest,1.6,Yes
2024/07/14,20:30,0.145,0.132,0.207,0.195,0.207,0.117,0.083,northwest,2.2,Yes
2024/07/14,20:40,0.144,0.130,0.205,0.193,0.206,0.118,0.080,north-northwest,2.4,Yes
2024/07/14,20:50,0.144,0.130,0.204,0.193,0.202,0.115,0.079,northwest,3.0,Yes
2024/07/14,21:00,0.140,0.129,0.203,0.191,0.205,0.114,0.078,north-northwest,2.9,Yes
2024/07/14,21:10,0.141,0.127,0.202,0.189,0.202,0.114,0.076,north-northwest,3.2,No
2024/07/14,21:20,0.140,0.127,0.203,0.190,0.203,0.112,0.076,north-northwest,3.7,No
2024/07/14,21:30,0.138,0.124,0.200,0.187,0.201,0.112,0.074,north-northwest,3.4,Yes
2024/07/14,21:40,0.140,0.125,0.201,0.189,0.199,0.110,0.074,northwest,3.8,Yes
2024/07/14,21:50,0.138,0.125,0.201,0.188,0.201,0.111,0.074,northwest,4.1,Yes
2024/07/14,22:00,0.138,0.124,0.200,0.188,0.201,0.111,0.073,north-northwest,4.6,Yes
2024/07/14,22:10,0.139,0.124,0.198,0.187,0.201,0.111,0.074,north-northwest,4.1,Yes
2024/07/14,22:20,0.137,0.123,0.199,0.187,0.201,0.111,0.073,north-northwest,3.1,Yes
2024/07/14,22:30,0.138,0.123,0.199,0.188,0.199,0.111,0.073,north-northwest,3.3,Yes
2024/07/14,22:40,0.139,0.123,0.200,0.187,0.201,0.111,0.073,northwest,4.2,Yes
2024/07/14,22:50,0.137,0.123,0.199,0.187,0.200,0.110,0.073,northwest,3.5,Yes
2024/07/14,23:00,0.138,0.124,0.200,0.188,0.200,0.111,0.073,northwest,4.2,Yes
2024/07/14,23:10,0.138,0.124,0.198,0.187,0.201,0.110,0.073,northwest,4.4,Yes
2024/07/14,23:20,0.139,0.124,0.200,0.189,0.200,0.110,0.073,northwest,3.9,Yes
2024/07/14,23:30,0.138,0.123,0.199,0.186,0.199,0.111,0.073,northwest,4.7,No
2024/07/14,23:40,0.137,0.123,0.198,0.187,0.202,0.109,0.072,northwest,4.9,No
2024/07/14,23:50,0.139,0.124,0.201,0.187,0.198,0.111,0.073,north-northwest,4.3,No
